Torna al catalogo

CZ-3B DEB

LostGTO
NORAD 40188·DEBRIS·🇨🇳 China

Lanciato Dec 19, 2011 da Xichang Satellite Launch Center

Loading…

TLE

ObsoletoSource: Space-Track

Epoca: Jul 24, 2025, 05:23 UTC

1 40188U 11077M   25205.22483303 -.00000606  00000-0 -32888-1 0  9990
2 40188  26.7208  65.9828 7363207 263.1392  16.2067  1.91390581 88522

Traccia CZ-3B DEB in tempo reale con AllMySat

Download on the App Store